Innsbruck, Austria 16 day weather forecast

Slopes altitude range 850 m - 3200m

Number of lifts: 59 Pistes: 130km

In some cases the lift and piste totals shown are for the ski domain (e.g. Three Valleys) rather than individual resort (e.g. Courchevel)

Overview

The 16 day weather forecast is fully updated 4 times every day.

    • Mon 22 APR 2019
    • Mon 22
    • 6C 19C
    • Tue 23 APR 2019
    • Tue 23
    • 6C 16C
    • Wed 24 APR 2019
    • Wed 24
    • 7C 16C
    • Thu 25 APR 2019
    • Thu 25
    • 7C 17C
    • Fri 26 APR 2019
    • Fri 26
    • 1C 9C
    • Sat 27 APR 2019
    • Sat 27
    • 0C 6C
    • Sun 28 APR 2019
    • Sun 28
    • 4C 12C
    • Mon 29 APR 2019
    • Mon 29
    • 6C 14C
    • Tue 30 APR 2019
    • Tue 30
    • 6C 12C
    • Wed 01 MAY 2019
    • Wed 01
    • 6C 12C
    • Thu 02 MAY 2019
    • Thu 02
    • 2C 15C
    • Fri 03 MAY 2019
    • Fri 03
    • 2C 18C
    • Sat 04 MAY 2019
    • Sat 04
    • 6C 22C
    • Sun 05 MAY 2019
    • Sun 05
    • 9C 25C
    • Mon 06 MAY 2019
    • Mon 06
    • 8C 12C
    • Tue 07 MAY 2019
    • Tue 07
    • 5C 10C

Date:

Time Type 0°C level Temp Chill Snow Cloud Speed Gust Dir Press
3:00 3204m 2°C 2_6 0cm 97% 6mph 6mph 1016mB
6:00 3249m 2°C 2_6 0cm 98% 6mph 8mph 1014mB
9:00 3256m 6°C 6_3 0cm 100% 3mph 6mph 1010mB
12:00 3099m 19°C 19_4 0cm 100% 4mph 6mph 1008mB
15:00 3196m 19°C 19_4 0cm 59% 4mph 7mph 1006mB
18:00 3188m 19°C 19_2 0cm 49% 2mph 3mph 1005mB
21:00 3264m 6°C 6_6 0cm 99% 6mph 10mph 1006mB
0:00 3342m 5°C 5_6 0cm 100% 6mph 10mph 1005mB
3:00 3196m 3°C 3_6 0cm 100% 6mph 9mph 1003mB
6:00 3044m 3°C 3_6 0cm 100% 6mph 9mph 1002mB
9:00 2952m 6°C 6_4 0cm 100% 4mph 7mph 1000mB
12:00 2901m 16°C 16_4 0cm 100% 4mph 7mph 1000mB
15:00 2886m 16°C 16_5 0cm 100% 5mph 7mph 1000mB
18:00 2880m 16°C 16_5 0cm 100% 5mph 6mph 1001mB
21:00 3128m 6°C 6_6 0cm 100% 6mph 9mph 1004mB
0:00 3051m 5°C 5_6 0cm 100% 6mph 9mph 1005mB
3:00 3063m 4°C 4_6 0cm 99% 6mph 10mph 1006mB
6:00 3046m 3°C 3_7 0cm 51% 7mph 11mph 1007mB
9:00 3086m 7°C 7_7 0cm 39% 7mph 10mph 1008mB
12:00 3092m 16°C 16_8 0cm 70% 8mph 12mph 1007mB
15:00 3404m 16°C 16_8 0cm 100% 8mph 14mph 1007mB
18:00 3484m 16°C 16_6 0cm 100% 6mph 10mph 1009mB
21:00 2750m 4°C 4_2 0cm 100% 2mph 3mph 1015mB
0:00 2861m 3°C 3_3 0cm 98% 3mph 3mph 1017mB
3:00 3514m 3°C 3_6 0cm 78% 6mph 9mph 1016mB
6:00 3552m 3°C 3_8 0cm 46% 8mph 14mph 1015mB
9:00 3593m 7°C 7_8 0cm 31% 8mph 13mph 1014mB
12:00 3494m 17°C 17_8 0cm 22% 8mph 12mph 1013mB
15:00 3351m 18°C 18_7 0cm 87% 7mph 11mph 1013mB
18:00 3308m 17°C 17_7 0cm 93% 7mph 11mph 1013mB
21:00 3261m 8°C 8_7 0cm 100% 7mph 10mph 1014mB
0:00 3065m 7°C 7_7 0cm 100% 7mph 10mph 1014mB
3:00 2915m 4°C 4_4 0cm 66% 4mph 5mph 1014mB
6:00 2698m 3°C 3_1 0cm 37% 1mph 2mph 1014mB
9:00 2294m 7°C 7_6 0cm 56% 6mph 7mph 1016mB
12:00 1571m 9°C 9_6 3cm 77% 6mph 12mph 1018mB
15:00 1494m 2°C 2_4 5cm 100% 4mph 6mph 1020mB
18:00 1523m 2°C 2_4 4cm 100% 4mph 7mph 1022mB
21:00 1538m 0°C 0_4 2cm 100% 4mph 7mph 1024mB
0:00 1306m -1°C -1_5 2cm 100% 5mph 8mph 1025mB
3:00 1313m -1°C -1_4 3cm 100% 4mph 7mph 1026mB
6:00 1429m -1°C -1_3 2cm 100% 3mph 4mph 1027mB
9:00 1700m 0°C 0_2 1cm 99% 2mph 4mph 1026mB
12:00 2011m 6°C 6_3 0cm 98% 3mph 5mph 1025mB
15:00 2200m 9°C 9_4 0cm 74% 4mph 5mph 1024mB
18:00 2171m 9°C 9_2 0cm 86% 2mph 2mph 1026mB
21:00 2251m 2°C 2_4 0cm 100% 4mph 5mph 1028mB
0:00 2365m 0°C 0_5 0cm 100% 5mph 6mph 1028mB
3:00 2487m 0°C 0_5 0cm 100% 5mph 6mph 1026mB
6:00 2573m 0°C 0_4 0cm 100% 4mph 4mph 1025mB
9:00 2549m 4°C 4_3 0cm 100% 3mph 4mph 1023mB
12:00 2637m 12°C 12_4 0cm 100% 4mph 6mph 1022mB
15:00 2764m 14°C 14_3 0cm 100% 3mph 5mph 1020mB
18:00 2828m 14°C 14_1 0cm 99% 1mph 2mph 1021mB
21:00 2766m 4°C 4_3 0cm 100% 3mph 4mph 1022mB
0:00 2823m 3°C 3_4 0cm 98% 4mph 4mph 1021mB
3:00 2864m 2°C 2_4 0cm 100% 4mph 5mph 1019mB
6:00 2799m 2°C 2_3 0cm 100% 3mph 4mph 1016mB
9:00 2793m 6°C 6_2 0cm 100% 2mph 2mph 1013mB
12:00 2921m 14°C 14_3 0cm 100% 3mph 4mph 1009mB
15:00 2735m 22°C 22_11 0cm 95% 11mph 31mph 1006mB
18:00 2615m 22°C 22_12 0cm 97% 12mph 31mph 1007mB
21:00 2389m 11°C 11_9 0cm 99% 9mph 30mph 1008mB
0:00 1929m 9°C 9_11 0cm 99% 11mph 26mph 1007mB
3:00 1552m 7°C 7_8 0cm 97% 8mph 28mph 1007mB
6:00 1360m 6°C 6_10 0cm 98% 10mph 27mph 1008mB
9:00 1449m 6°C 6_13 0cm 100% 13mph 29mph 1008mB
12:00 1708m 12°C 12_18 0cm 90% 18mph 29mph 1008mB
15:00 1564m 12°C 12_20 0cm 37% 20mph 35mph 1009mB
18:00 1483m 12°C 12_11 0cm 29% 11mph 25mph 1011mB
21:00 1459m 5°C 5_8 0cm 2% 8mph 25mph 1013mB
0:00 1414m 4°C 4_7 0cm 17% 7mph 24mph 1014mB
3:00 1351m 3°C 3_6 0cm 25% 6mph 15mph 1015mB
6:00 1303m 3°C 3_8 0cm 16% 8mph 16mph 1015mB
9:00 1369m 6°C 6_9 0cm 48% 9mph 14mph 1014mB
12:00 1579m 12°C 12_9 0cm 45% 9mph 14mph 1012mB
15:00 1689m 12°C 12_9 0cm 88% 9mph 15mph 1011mB
18:00 1674m 12°C 12_4 0cm 48% 4mph 5mph 1013mB
21:00 1608m 5°C 5_4 0cm 79% 4mph 6mph 1015mB
0:00 1563m 3°C 3_5 0cm 43% 5mph 7mph 1014mB
Afternoon 0.00520833mm 0 1828m 15°C 15_4 0cm 60% 4mph 6mph 1009mB
Morning 0.0260417mm 0.3125 1963m 3°C 3_2 0cm 34% 2mph 3mph 1014mB
Afternoon 0mm 0 2317m 18°C 18_6 0cm 13% 6mph 8mph 1008mB
Morning 0mm 0 2755m 7°C 7_5 0cm 46% 5mph 13mph 1009mB
Afternoon 0mm 0 2886m 22°C 22_6 0cm 71% 6mph 9mph 1003mB
Morning 0mm 0 3225m 11°C 11_5 0cm 89% 5mph 8mph 1002mB
Afternoon 0mm 0 3104m 25°C 25_5 0cm 11% 5mph 10mph 998mB
Morning 0.0364583mm 0.25 2854m 11°C 11_14 0cm 62% 14mph 27mph 994mB
Afternoon 0.489583mm 0.0625 2024m 12°C 12_12 0cm 100% 12mph 35mph 999mB
Morning 0.140625mm 0 1407m 7°C 7_16 0cm 100% 16mph 35mph 1009mB
Afternoon 0.015625mm 0.1875 1392m 10°C 10_12 0cm 93% 12mph 18mph 1015mB
Morning 0.0208333mm 0.0625 1261m 2°C 2_5 0cm 65% 5mph 8mph 1022mB

16 day outlook at a glance

Forecast issued: 22/04/2019 08:42:50

Chat

Your comments and questions. In a resort? Let us know what it's like!


Characters left 250

For terms and conditions see Readers Comments on the Cookie and privacy policy page.